Location: Jackson Park
(37.2862°N, 79.9123°W)
Time: 10:29:06
(UTC+00:00)

Injun/Solrad 3 - Visible Passes

Search period start: 15 May 2026 00:00
Search period end: 25 May 2026 00:00
Orbit: 868 x 988 km, 66.8° (Epoch: 14 May)

Date Brightness Start Highest point End Pass type
(mag) Time Alt. Az. Time Alt. Az. Time Alt. Az.
15 May 10.5 03:52:44 10° NNE 03:54:30 11° NE 03:56:15 10° NE visible
15 May 8.5 05:36:09 10° NNW 05:42:23 55° NE 05:42:23 55° NE visible
15 May 9.6 07:23:33 10° NW 07:25:58 19° WNW 07:25:58 19° WNW visible
16 May 10.2 04:02:15 10° N 04:06:04 16° NE 04:09:03 12° ENE visible
16 May 8.2 05:47:05 10° NNW 05:52:38 67° N 05:52:38 67° N visible
16 May 10.1 07:35:53 10° WNW 07:36:13 11° WNW 07:36:13 11° WNW visible
17 May 9.7 04:12:33 10° N 04:17:32 23° NE 04:19:22 20° ENE visible
17 May 8.5 05:58:10 10° NNW 06:02:58 50° NW 06:02:58 50° NW visible
18 May 9.2 04:23:08 10° N 04:28:52 33° NE 04:29:45 31° ENE visible
18 May 9.1 06:09:25 10° NW 06:13:21 33° WNW 06:13:21 33° WNW visible
19 May 8.6 04:33:53 10° NNW 04:40:06 48° ENE 04:40:12 48° ENE visible
19 May 9.6 06:20:58 10° NW 06:23:48 22° WNW 06:23:48 22° WNW visible
20 May 10.2 03:00:15 10° N 03:03:34 14° NE 03:06:53 10° ENE visible
20 May 8.2 04:44:46 10° NNW 04:50:41 68° NNE 04:50:41 68° NNE visible
20 May 10.1 06:33:00 10° WNW 06:34:18 14° WNW 06:34:18 14° WNW visible
21 May 9.8 03:10:25 10° N 03:15:04 20° NE 03:17:37 16° ENE visible
21 May 8.2 04:55:48 10° NNW 05:01:13 63° NW 05:01:13 63° NW visible
22 May 9.3 03:20:55 10° N 03:26:27 29° NE 03:28:11 26° ENE visible
22 May 8.7 05:06:59 10° NW 05:11:48 43° WNW 05:11:48 43° WNW visible
23 May 8.7 03:31:37 10° NNW 03:37:43 42° NE 03:38:48 39° E visible
23 May 9.3 05:18:26 10° NW 05:22:25 28° W 05:22:25 28° W visible
24 May 10.2 01:58:21 10° NNE 02:01:03 13° NE 02:03:44 10° ENE visible
24 May 8.1 03:42:27 10° NNW 03:48:52 63° ENE 03:49:27 60° E visible
24 May 9.8 05:30:15 10° WNW 05:33:04 18° W 05:33:04 18° W visible
